Regional Weather Roundup
Issued by NWS

Home | Current Version | Previous Version | Graphics & Text | Print | Product List | Glossary Off
Versions: 1 2 3 4 5 6 7 8 9 10 11 12 13 14 15 16 17 18 19 20 21 22 23 24 25 26 27 28 29 30 31 32 33 34 35 36 37 38 39 40 41 42 43 44 45 46 47 48 49 50

000
ASUS43 KDMX 222307
RWRIA

WEATHER ROUNDUP FOR IOWA
NATIONAL WEATHER SERVICE DES MOINES IA
500 PM CST MON DEC 22 2014

NOTE: "FAIR" INDICATES FEW OR NO CLOUDS BELOW 12,000 FEET WITH NO
SIGNIFICANT WEATHER AND/OR OBSTRUCTIONS TO VISIBILITY.

* - THESE STATIONS ARE NOT NWS STATIONS...THUS NOT UNDER NWS
QUALITY CONTROL.  THEY ALSO DO NOT REPORT WEATHER SUCH
AS PRECIPITATION OR FOG.

IAZ001>003-012>014-020>022-031>034-043>046-230000-
   NORTHWEST IOWA

CITY           SKY/WX    TMP DP  RH WIND       PRES   REMARKS
CARROLL *      CLOUDY    39  39 100 SE12      29.44R FOG     WCI  32
CHEROKEE *     LGT RAIN  39  39 100 SE7       29.44R WCI  34
DENISON *      CLOUDY    41  41 100 SE5       29.40S
LE MARS *      CLOUDY    39  39 100 CALM      29.43R FOG
ORANGE CITY *  DRIZZLE   39  37  93 E6        29.42S WCI  35
SHELDON *      CLOUDY    37  37 100 SE9       29.43R FOG     WCI  31
SIOUX CITY     LGT RAIN  41  39  93 NW6       29.43R
SPENCER        LGT RAIN  38  36  92 E13       29.46R FOG     WCI  30
STORM LAKE *   MIX PCPN  37  37 100 SE12      29.44S VSB 1   WCI  30
$$

IAZ055>058-069>071-079>083-090>094-230000-
   SOUTHWEST IOWA

CITY           SKY/WX    TMP DP  RH WIND       PRES   REMARKS
ATLANTIC *     CLOUDY    41  41 100 E6        29.41S
AUDUBON *      LGT RAIN  39  36  87 E5        29.43S
CLARINDA *     MIX PCPN  43  43 100 SW7       29.43R
COUNCIL BLFS * CLOUDY    41  41 100 CALM      29.40R FOG
CRESTON *      CLOUDY    41  41 100 SE8       29.43R FOG
HARLAN  *      LGT RAIN  41  41 100 SE3       29.45R
LAMONI         CLOUDY    41  41 100 SE6       29.43S FOG
RED OAK *      LGT RAIN  43  43 100 CALM      29.41S
SHENANDOAH *   CLOUDY    43  43 100 W8        29.43R FOG
$$

IAZ047>049-059>061-072>074-084-230000-
   CENTRAL IOWA

CITY           SKY/WX    TMP DP  RH WIND       PRES   REMARKS
AMES           LGT RAIN  37  36  96 E10       29.47S FOG     WCI  30
ANKENY *       CLOUDY    39  39 100 E9G15     29.47S FOG     WCI  33
CHARITON *     MIX PCPN  39  39 100 MISG      29.45S
DES MOINES     LGT RAIN  41  38  89 E7G18     29.46F FOG
GRINNELL*      FOG       37  36  93 E12       29.49F VSB 1/2 WCI  30
KNOXVILLE *    FOG       39  37  93 E7G14     29.46S VSB 3/4 WCI  34
MARSHALLTOWN   CLOUDY    37  35  92 E14       29.49F WCI  28
PELLA *        DRZL/FOG  39  37  93 E10       29.49F VSB 3/4 WCI  32
PERRY *        LGT RAIN  39  39 100 E10       29.45S WCI  32
$$

IAZ004>006-015-016-023>025-035-036-230000-
   NORTH CENTRAL IOWA

CITY           SKY/WX    TMP DP  RH WIND       PRES   REMARKS
ALGONA *       MIX PCPN  36 N/A N/A E13       29.49S WCI  27
CLARION *      CLOUDY    36  36 100 E14       29.49S FOG     WCI  27
ESTHERVILLE    CLOUDY    35  35 100 SE12      29.47S FOG     WCI  27
FORT DODGE *   CLOUDY    37  34  87 E12       29.48R WCI  30
MASON CITY     LGT RAIN  35  34  96 E10       29.53S FOG     WCI  27
FOREST CITY *  DRIZZLE   36  34  93 E12       29.51R WCI  27
IOWA FALLS *   CLOUDY    36  36 100 E15G21    29.50S WCI  26
$$

IAZ007>011-017>019-026>030-037>042-050>054-066-230000-
   NORTHEAST IOWA

CITY           SKY/WX    TMP DP  RH WIND       PRES   REMARKS
CEDAR RAPIDS   FOG       36  36 100 E12       29.52F VSB 1/2 WCI  28
CHARLES CITY * CLOUDY    36  36 100 E13G20    29.54S FOG     WCI  27
CLINTON *      CLOUDY    37  34  87 E9        29.60F WCI  31
DECORAH *      LGT SNOW  34  34 100 E13       29.56F WCI  25
DUBUQUE        CLOUDY    35  33  92 SE13      29.58S FOG     WCI  26
MONTICELLO *   CLOUDY    36  36 100 E9        29.56S FOG     WCI  29
OELWEIN *      CLOUDY    36  36 100 E14       29.55S FOG     WCI  27
WATERLOO       CLOUDY    36  35  96 SE13      29.53S WCI  27
$$

IAZ064-065-067-068-078-230000-
   EAST CENTRAL IOWA

CITY           SKY/WX    TMP DP  RH WIND       PRES   REMARKS
DAVENPORT      CLOUDY    37  36  96 E9        29.57F FOG     WCI  30
IOWA CITY      CLOUDY    38  38 100 E6        29.55F FOG     WCI  33
MT. PLEASANT * FOG       39  39 100 E9        29.52F VSB 1/2 WCI  33
MUSCATINE *    CLOUDY    41  39  93 E7        29.55F FOG
QUAD CITIES    CLOUDY    39  37  92 E6        29.56F FOG     WCI  35
$$

IAZ062-063-075>077-085>089-095>099-230000-
   SOUTHEAST IOWA

CITY           SKY/WX    TMP DP  RH WIND       PRES   REMARKS
BURLINGTON     LGT RAIN  41  41 100 SE8       29.52F FOG
FAIRFIELD *    FOG       39  39 100 E9        29.50F VSB 0   WCI  33
FORT MADISON * DRZL/FOG  43  43 100 E8        29.53S VSB 1
KEOKUK *       FOG       43  43 100 SE6       29.51F VSB 1/2
OSKALOOSA *    FOG       37  37 100 E12       29.49F VSB 3/4 WCI  30
CENTERVILLE *  CLOUDY    39  39 100 E7        29.47S WCI  34
OTTUMWA        FOG       39  38  96 E10       29.48S VSB 1   WCI  32
WASHINGTON *   FOG       39  39 100 SE10      29.52S VSB 1/4 WCI  32
$$

ABBREVIATIONS USED IN REMARKS
   TC - TEMPERATURES IN CELSIUS
  WCI - WIND CHILL INDEX
   HX - HEAT INDEX
  VSB - VISIBILITY
$$




USA.gov is the U.S. government's official web portal to all federal, state and local government web resources and services.